Weather in Urkarakh

Russia / Republic of Dagestan     42°09′35″N   47°38′02″E
temp.,
°C
wind,
m/s
gust,
m/s
humid.,
%
clouds,
%
prec.,
mm/h
press.,
hPa
HPBL,
m
24 may, tue
tue2400:00+10w3381100 1.7 100471
03:00+10w3382100 1.9 100569
06:00+11wnw2280100 0.1 100693
09:00+13ne2272100 0.2 1007678
12:00+11ene1187100 1.1 1009350
15:00+10sse1194100 3.7 1010174
18:00+10e0191100 0.6 101260
21:00+10sw1190100 0.9 101342
25 may, wed
wed2500:00+9wsw2186100 0.3 101437
03:00+9sw2291100 2.5 101569
06:00+8sw2391100 4.6 1017115
09:00+8wsw1290100 8.6 1019177
12:00+9nne0187100 2.2 1020272
15:00+10s118599 2.6 1020277
18:00+11s117559 0.0 1020275
21:00+8wsw22816 0.0 102318
26 may, thu
thu2600:00+7wsw33747 0.0 102331
03:00+7wsw43695 0.0 102334
06:00+10wsw22655 0.0 102379
09:00+15e335551 0.0 10221445
12:00+13ene2265100 0.2 10221051
15:00+15ese226243 0.3 10221091
18:00+13e227186 0.1 1022423
21:00+10wsw228334 0.1 102317
27 may, fri
fri2700:00+9wsw32792 0.0 102222
03:00+8wsw436890 0.0 102235
06:00+12wsw326171 0.0 102176
09:00+17e22498 0.0 10211080
12:00+19e434520 0.0 10201522
15:00+18e435316 0.0 10191146
18:00+16ese226717 0.0 1020237
21:00+12wsw22810 0.0 102114
28 may, sat
sat2800:00+12wsw22780 0.0 102017
03:00+11wsw32700 0.0 102019
06:00+15sw11620 0.0 101971
09:00+18ese34600 0.0 1018747
12:00+21ese545218 0.0 10161229
15:00+20e43555 0.0 1016954
18:00+17e21680 0.0 1016177
21:00+14wsw21820 0.0 101611